Time,TemperatureF,DewpointF,PressureIn,WindDirection,WindDirectionDegrees,WindSpeedMPH,WindSpeedGustMPH,Humidity,HourlyPrecipIn,Conditions,Clouds,dailyrainin,SoftwareType,DateUTC
2013-03-20 00:02:00,49.4,41.2,29.93,ENE,67,6.3,12.3,73,0.00,,,0.00,WUHU21623XXSP,2013-03-20 07:02:00,
2013-03-20 00:07:00,49.6,41.4,29.93,NE,45,5.1,11.9,73,0.00,,,0.00,WUHU21623XXSP,2013-03-20 07:07:00,
2013-03-20 00:12:00,49.6,41.4,29.93,ENE,67,5.6,11.9,73,0.00,,,0.00,WUHU21623XXSP,2013-03-20 07:12:00,
2013-03-20 00:17:00,49.8,41.6,29.93,ENE,67,4.3,10.1,73,0.00,,,0.00,WUHU21623XXSP,2013-03-20 07:17:00,
2013-03-20 00:22:00,50.0,42.1,29.92,ENE,67,3.4,11.0,74,0.00,,,0.00,WUHU21623XXSP,2013-03-20 07:22:00,
2013-03-20 00:27:00,50.2,42.3,29.92,East,90,5.1,11.0,74,0.00,,,0.00,WUHU21623XXSP,2013-03-20 07:27:00,
2013-03-20 00:32:00,50.3,42.4,29.92,ENE,67,0.0,8.7,74,0.00,,,0.00,WUHU21623XXSP,2013-03-20 07:32:00,
2013-03-20 00:37:00,50.3,42.4,29.92,ENE,67,3.4,6.9,74,0.00,,,0.00,WUHU21623XXSP,2013-03-20 07:37:00,
2013-03-20 00:42:00,50.3,42.4,29.92,ENE,67,0.0,5.1,74,0.00,,,0.00,WUHU21623XXSP,2013-03-20 07:42:00,
2013-03-20 00:47:00,50.3,42.8,29.92,ENE,67,0.7,6.7,75,0.00,,,0.00,WUHU21623XXSP,2013-03-20 07:47:00,
2013-03-20 00:52:00,50.3,42.8,29.92,ENE,67,2.2,7.4,75,0.00,,,0.00,WUHU21623XXSP,2013-03-20 07:52:00,
2013-03-20 00:57:00,50.3,42.8,29.92,ENE,67,0.0,7.4,75,0.00,,,0.00,WUHU21623XXSP,2013-03-20 07:57:00,
2013-03-20 01:02:00,50.5,42.6,29.92,ENE,67,0.0,4.0,74,0.00,,,0.00,WUHU21623XXSP,2013-03-20 08:02:00,
2013-03-20 01:07:00,50.5,42.3,29.93,ENE,67,0.0,3.4,73,0.00,,,0.00,WUHU21623XXSP,2013-03-20 08:07:00,
2013-03-20 01:12:00,50.5,42.3,29.93,ENE,67,0.0,2.6,73,0.00,,,0.00,WUHU21623XXSP,2013-03-20 08:12:00,
2013-03-20 01:17:00,50.5,42.3,29.93,ENE,67,0.0,0.0,73,0.00,,,0.00,WUHU21623XXSP,2013-03-20 08:17:00,
2013-03-20 01:22:00,50.7,42.4,29.93,ENE,67,0.0,0.0,73,0.00,,,0.00,WUHU21623XXSP,2013-03-20 08:22:00,
2013-03-20 01:27:00,50.7,42.8,29.93,ENE,67,0.0,0.0,74,0.00,,,0.00,WUHU21623XXSP,2013-03-20 08:27:00,
2013-03-20 01:32:00,50.9,43.0,29.93,East,90,0.0,0.0,74,0.00,,,0.00,WUHU21623XXSP,2013-03-20 08:32:00,
2013-03-20 01:37:00,50.9,43.3,29.93,East,90,0.0,0.0,75,0.00,,,0.00,WUHU21623XXSP,2013-03-20 08:37:00,
2013-03-20 01:42:00,50.9,43.7,29.93,East,90,0.0,0.0,76,0.00,,,0.00,WUHU21623XXSP,2013-03-20 08:42:00,
2013-03-20 01:47:00,50.9,43.7,29.93,East,90,0.0,0.0,76,0.00,,,0.00,WUHU21623XXSP,2013-03-20 08:47:00,
2013-03-20 01:52:00,51.1,43.9,29.93,East,90,0.0,0.0,76,0.00,,,0.00,WUHU21623XXSP,2013-03-20 08:52:00,
2013-03-20 01:57:00,51.2,43.6,29.93,East,90,0.0,0.0,75,0.00,,,0.00,WUHU21623XXSP,2013-03-20 08:57:00,
2013-03-20 02:02:00,51.2,43.3,29.93,East,90,0.0,0.0,74,0.00,,,0.00,WUHU21623XXSP,2013-03-20 09:02:00,
2013-03-20 02:07:00,51.2,43.3,29.93,East,90,0.0,0.0,74,0.00,,,0.00,WUHU21623XXSP,2013-03-20 09:07:00,
2013-03-20 02:12:00,51.2,43.3,29.93,East,90,0.0,0.0,74,0.00,,,0.00,WUHU21623XXSP,2013-03-20 09:12:00,
2013-03-20 02:17:00,51.1,43.5,29.93,East,90,0.0,0.0,75,0.00,,,0.00,WUHU21623XXSP,2013-03-20 09:17:00,
2013-03-20 02:22:00,50.9,43.7,29.93,East,90,0.0,0.0,76,0.00,,,0.00,WUHU21623XXSP,2013-03-20 09:22:00,
2013-03-20 02:27:00,50.9,43.7,29.93,East,90,0.0,0.0,76,0.00,,,0.00,WUHU21623XXSP,2013-03-20 09:27:00,
2013-03-20 02:32:00,50.9,43.7,29.93,East,90,0.0,0.0,76,0.00,,,0.00,WUHU21623XXSP,2013-03-20 09:32:00,
2013-03-20 02:37:00,50.9,43.0,29.93,East,90,0.0,0.0,74,0.00,,,0.00,WUHU21623XXSP,2013-03-20 09:37:00,
2013-03-20 02:42:00,50.9,43.0,29.94,East,90,0.0,0.0,74,0.00,,,0.00,WUHU21623XXSP,2013-03-20 09:42:00,
2013-03-20 02:47:00,50.9,43.0,29.93,East,90,0.0,0.0,74,0.00,,,0.00,WUHU21623XXSP,2013-03-20 09:47:00,
2013-03-20 02:52:00,50.9,43.3,29.93,East,90,0.0,0.0,75,0.00,,,0.00,WUHU21623XXSP,2013-03-20 09:52:00,
2013-03-20 02:57:00,50.7,43.1,29.93,East,90,0.0,0.0,75,0.00,,,0.00,WUHU21623XXSP,2013-03-20 09:57:00,
2013-03-20 03:02:00,50.5,42.9,29.92,East,90,0.0,0.0,75,0.00,,,0.00,WUHU21623XXSP,2013-03-20 10:02:00,
2013-03-20 03:07:00,50.5,42.9,29.92,East,90,0.0,0.0,75,0.00,,,0.00,WUHU21623XXSP,2013-03-20 10:07:00,
2013-03-20 03:13:00,50.5,42.6,29.92,East,90,0.0,0.0,74,0.00,,,0.00,WUHU21623XXSP,2013-03-20 10:13:00,
2013-03-20 03:18:00,50.9,42.6,29.92,East,90,0.0,0.0,73,0.00,,,0.00,WUHU21623XXSP,2013-03-20 10:18:00,
2013-03-20 03:23:00,51.2,42.9,29.92,ENE,67,0.0,0.0,73,0.00,,,0.00,WUHU21623XXSP,2013-03-20 10:23:00,
2013-03-20 03:27:00,51.4,42.8,29.92,NW,315,1.8,1.8,72,0.00,,,0.00,WUHU21623XXSP,2013-03-20 10:27:00,
2013-03-20 03:32:00,51.6,42.6,29.93,WNW,292,7.2,7.2,71,0.00,,,0.00,WUHU21623XXSP,2013-03-20 10:32:00,
2013-03-20 03:37:00,51.8,42.8,29.93,WNW,292,4.9,7.2,71,0.00,,,0.00,WUHU21623XXSP,2013-03-20 10:37:00,
2013-03-20 03:43:00,52.0,43.0,29.92,WNW,292,0.0,6.9,71,0.00,,,0.00,WUHU21623XXSP,2013-03-20 10:43:00,
2013-03-20 03:47:00,51.8,42.8,29.92,WNW,292,2.7,4.5,71,0.00,,,0.00,WUHU21623XXSP,2013-03-20 10:47:00,
2013-03-20 03:52:00,51.8,42.8,29.92,WNW,292,2.2,4.5,71,0.00,,,0.00,WUHU21623XXSP,2013-03-20 10:52:00,
2013-03-20 03:57:00,51.4,42.4,29.92,WNW,292,1.6,3.8,71,0.00,,,0.00,WUHU21623XXSP,2013-03-20 10:57:00,
2013-03-20 04:03:00,51.4,42.4,29.92,WNW,292,0.0,4.0,71,0.00,,,0.00,WUHU21623XXSP,2013-03-20 11:03:00,
2013-03-20 04:08:00,51.2,42.6,29.92,WNW,292,0.0,4.0,72,0.00,,,0.00,WUHU21623XXSP,2013-03-20 11:08:00,
2013-03-20 04:13:00,50.9,42.3,29.92,North,0,4.3,5.8,72,0.00,,,0.00,WUHU21623XXSP,2013-03-20 11:13:00,
2013-03-20 04:18:00,50.9,42.6,29.92,North,0,4.5,5.8,73,0.00,,,0.00,WUHU21623XXSP,2013-03-20 11:18:00,
2013-03-20 04:23:00,50.7,42.4,29.91,North,0,3.4,5.4,73,0.00,,,0.00,WUHU21623XXSP,2013-03-20 11:23:00,
2013-03-20 04:28:00,50.7,42.4,29.91,North,0,2.2,5.4,73,0.00,,,0.00,WUHU21623XXSP,2013-03-20 11:28:00,
2013-03-20 04:33:00,50.7,42.4,29.91,North,0,0.0,5.4,73,0.00,,,0.00,WUHU21623XXSP,2013-03-20 11:33:00,
2013-03-20 04:38:00,50.7,42.1,29.91,North,0,0.0,4.0,72,0.00,,,0.00,WUHU21623XXSP,2013-03-20 11:38:00,
2013-03-20 04:43:00,50.7,42.1,29.91,North,0,0.0,0.0,72,0.00,,,0.00,WUHU21623XXSP,2013-03-20 11:43:00,
2013-03-20 04:48:00,50.9,41.9,29.90,North,0,0.0,0.0,71,0.00,,,0.00,WUHU21623XXSP,2013-03-20 11:48:00,
2013-03-20 04:53:00,51.2,42.2,29.90,North,0,0.0,0.0,71,0.00,,,0.00,WUHU21623XXSP,2013-03-20 11:53:00,
2013-03-20 04:58:00,50.9,42.3,29.90,North,0,0.0,0.0,72,0.00,,,0.00,WUHU21623XXSP,2013-03-20 11:58:00,
2013-03-20 05:03:00,50.9,42.3,29.91,North,0,0.0,0.0,72,0.00,,,0.00,WUHU21623XXSP,2013-03-20 12:03:00,
2013-03-20 05:08:00,50.9,42.3,29.90,North,0,0.0,0.0,72,0.00,,,0.00,WUHU21623XXSP,2013-03-20 12:08:00,
2013-03-20 05:13:00,50.9,42.6,29.90,North,0,0.0,0.0,73,0.00,,,0.00,WUHU21623XXSP,2013-03-20 12:13:00,
2013-03-20 05:18:00,51.2,42.9,29.90,North,0,0.0,0.0,73,0.00,,,0.00,WUHU21623XXSP,2013-03-20 12:18:00,
2013-03-20 05:23:00,51.4,42.8,29.90,North,0,0.0,0.0,72,0.00,,,0.00,WUHU21623XXSP,2013-03-20 12:23:00,
2013-03-20 05:28:00,51.8,42.8,29.90,North,0,0.0,0.0,71,0.00,,,0.00,WUHU21623XXSP,2013-03-20 12:28:00,
2013-03-20 05:33:00,51.8,42.8,29.90,North,0,0.0,0.0,71,0.00,,,0.00,WUHU21623XXSP,2013-03-20 12:33:00,
2013-03-20 05:38:00,51.4,42.0,29.90,North,0,0.0,0.0,70,0.00,,,0.00,WUHU21623XXSP,2013-03-20 12:38:00,
2013-03-20 05:43:00,51.4,42.0,29.91,North,0,0.0,0.0,70,0.00,,,0.00,WUHU21623XXSP,2013-03-20 12:43:00,
2013-03-20 05:48:00,51.4,42.0,29.91,North,0,0.0,1.6,70,0.00,,,0.00,WUHU21623XXSP,2013-03-20 12:48:00,
2013-03-20 05:53:00,51.2,41.9,29.90,North,0,0.0,1.6,70,0.00,,,0.00,WUHU21623XXSP,2013-03-20 12:53:00,
2013-03-20 05:58:00,51.2,42.2,29.90,North,0,0.0,0.0,71,0.00,,,0.00,WUHU21623XXSP,2013-03-20 12:58:00,
2013-03-20 06:03:00,51.1,42.5,29.90,North,0,0.0,0.0,72,0.00,,,0.00,WUHU21623XXSP,2013-03-20 13:03:00,
2013-03-20 06:08:00,50.9,42.6,29.90,North,0,0.0,0.0,73,0.00,,,0.00,WUHU21623XXSP,2013-03-20 13:08:00,
2013-03-20 06:13:00,50.9,43.0,29.90,North,0,0.0,0.0,74,0.00,,,0.00,WUHU21623XXSP,2013-03-20 13:13:00,
2013-03-20 06:18:00,51.1,42.8,29.91,North,0,0.0,0.0,73,0.00,,,0.00,WUHU21623XXSP,2013-03-20 13:18:00,
2013-03-20 06:23:00,51.4,43.1,29.90,North,0,0.0,0.0,73,0.00,,,0.00,WUHU21623XXSP,2013-03-20 13:23:00,
2013-03-20 06:28:00,51.4,42.8,29.90,North,0,0.0,0.0,72,0.00,,,0.00,WUHU21623XXSP,2013-03-20 13:28:00,
2013-03-20 06:33:00,51.4,42.8,29.91,North,0,0.0,0.0,72,0.00,,,0.00,WUHU21623XXSP,2013-03-20 13:33:00,
2013-03-20 06:38:00,51.2,42.6,29.90,North,0,0.0,0.0,72,0.00,,,0.00,WUHU21623XXSP,2013-03-20 13:38:00,
2013-03-20 06:43:00,50.9,42.6,29.90,North,0,0.0,0.0,73,0.00,,,0.00,WUHU21623XXSP,2013-03-20 13:43:00,
2013-03-20 06:48:00,50.9,42.6,29.91,WNW,292,0.0,0.0,73,0.00,,,0.00,WUHU21623XXSP,2013-03-20 13:48:00,
2013-03-20 06:53:00,50.9,42.3,29.91,WNW,292,0.0,0.0,72,0.00,,,0.00,WUHU21623XXSP,2013-03-20 13:53:00,
2013-03-20 06:58:00,51.1,42.5,29.91,WNW,292,0.0,0.0,72,0.00,,,0.00,WUHU21623XXSP,2013-03-20 13:58:00,
2013-03-20 07:03:00,51.2,42.6,29.91,WNW,292,0.0,0.0,72,0.00,,,0.00,WUHU21623XXSP,2013-03-20 14:03:00,
2013-03-20 07:08:00,51.2,42.6,29.91,WNW,292,0.0,0.0,72,0.00,,,0.00,WUHU21623XXSP,2013-03-20 14:08:00,
2013-03-20 07:13:00,51.4,42.4,29.91,WNW,292,0.0,0.0,71,0.00,,,0.00,WUHU21623XXSP,2013-03-20 14:13:00,
2013-03-20 07:18:00,51.2,42.2,29.91,NW,315,2.0,2.0,71,0.00,,,0.00,WUHU21623XXSP,2013-03-20 14:18:00,
2013-03-20 07:23:00,51.1,42.1,29.91,NNW,337,0.0,4.0,71,0.00,,,0.00,WUHU21623XXSP,2013-03-20 14:23:00,
2013-03-20 07:28:00,50.9,42.3,29.92,North,0,0.0,4.0,72,0.00,,,0.00,WUHU21623XXSP,2013-03-20 14:28:00,
2013-03-20 07:33:00,50.9,42.6,29.91,North,0,0.0,0.0,73,0.00,,,0.00,WUHU21623XXSP,2013-03-20 14:33:00,
2013-03-20 07:38:00,50.7,42.4,29.91,North,0,0.0,0.0,73,0.00,,,0.00,WUHU21623XXSP,2013-03-20 14:38:00,
2013-03-20 07:43:00,50.9,42.6,29.92,North,0,0.0,0.0,73,0.00,,,0.00,WUHU21623XXSP,2013-03-20 14:43:00,
2013-03-20 07:48:00,50.9,42.3,29.92,North,0,0.0,0.0,72,0.00,,,0.00,WUHU21623XXSP,2013-03-20 14:48:00,
2013-03-20 07:53:00,51.2,42.6,29.92,North,0,0.0,0.0,72,0.00,,,0.00,WUHU21623XXSP,2013-03-20 14:53:00,
2013-03-20 07:58:00,51.8,42.8,29.92,North,0,0.0,0.0,71,0.00,,,0.00,WUHU21623XXSP,2013-03-20 14:58:00,
2013-03-20 08:03:00,51.8,42.8,29.92,North,0,0.0,0.0,71,0.00,,,0.00,WUHU21623XXSP,2013-03-20 15:03:00,
2013-03-20 08:08:00,51.8,42.8,29.93,North,0,0.0,0.0,71,0.00,,,0.00,WUHU21623XXSP,2013-03-20 15:08:00,
2013-03-20 08:13:00,51.8,42.8,29.93,North,0,0.0,0.0,71,0.00,,,0.00,WUHU21623XXSP,2013-03-20 15:13:00,
2013-03-20 08:18:00,51.8,42.8,29.93,North,0,0.0,0.0,71,0.00,,,0.00,WUHU21623XXSP,2013-03-20 15:18:00,
2013-03-20 08:24:00,51.8,42.8,29.93,North,0,0.0,0.0,71,0.00,,,0.00,WUHU21623XXSP,2013-03-20 15:24:00,
2013-03-20 08:29:00,51.8,43.2,29.93,North,0,0.0,0.0,72,0.00,,,0.00,WUHU21623XXSP,2013-03-20 15:29:00,
2013-03-20 08:34:00,52.0,43.0,29.93,North,0,0.0,0.0,71,0.00,,,0.00,WUHU21623XXSP,2013-03-20 15:34:00,
2013-03-20 08:39:00,52.0,43.0,29.93,North,0,0.0,0.0,71,0.00,,,0.00,WUHU21623XXSP,2013-03-20 15:39:00,
2013-03-20 08:44:00,52.1,43.4,29.93,North,0,0.0,0.0,72,0.00,,,0.00,WUHU21623XXSP,2013-03-20 15:44:00,
2013-03-20 08:49:00,52.3,43.6,29.92,North,0,0.0,0.0,72,0.00,,,0.00,WUHU21623XXSP,2013-03-20 15:49:00,
2013-03-20 08:54:00,52.9,43.9,29.93,North,0,0.0,0.0,71,0.00,,,0.00,WUHU21623XXSP,2013-03-20 15:54:00,
2013-03-20 08:59:00,53.2,43.8,29.93,North,0,0.0,0.0,70,0.00,,,0.00,WUHU21623XXSP,2013-03-20 15:59:00,
2013-03-20 09:04:00,53.4,44.0,29.93,North,0,0.0,0.0,70,0.00,,,0.00,WUHU21623XXSP,2013-03-20 16:04:00,
2013-03-20 09:09:00,53.4,43.6,29.94,North,0,2.5,2.7,69,0.00,,,0.00,WUHU21623XXSP,2013-03-20 16:09:00,
2013-03-20 09:14:00,53.4,44.0,29.94,NNW,337,5.4,6.9,70,0.00,,,0.00,WUHU21623XXSP,2013-03-20 16:14:00,
2013-03-20 09:19:00,53.2,43.8,29.94,NNW,337,3.4,6.9,70,0.00,,,0.00,WUHU21623XXSP,2013-03-20 16:19:00,
2013-03-20 09:24:00,53.4,44.3,29.94,NNW,337,2.0,6.9,71,0.00,,,0.00,WUHU21623XXSP,2013-03-20 16:24:00,
2013-03-20 09:29:00,53.9,45.2,29.94,NNW,337,0.0,4.0,72,0.00,,,0.00,WUHU21623XXSP,2013-03-20 16:29:00,
2013-03-20 09:34:00,53.9,45.2,29.94,NNW,337,0.0,2.7,72,0.00,,,0.00,WUHU21623XXSP,2013-03-20 16:34:00,
2013-03-20 09:39:00,54.1,45.4,29.94,NNW,337,0.0,1.3,72,0.00,,,0.00,WUHU21623XXSP,2013-03-20 16:39:00,
2013-03-20 09:44:00,54.1,45.4,29.94,NNW,337,0.0,0.0,72,0.00,,,0.00,WUHU21623XXSP,2013-03-20 16:44:00,
2013-03-20 09:49:00,54.5,45.8,29.94,NNW,337,0.0,0.0,72,0.00,,,0.00,WUHU21623XXSP,2013-03-20 16:49:00,
2013-03-20 09:54:00,54.7,46.0,29.94,NW,315,0.0,0.0,72,0.00,,,0.00,WUHU21623XXSP,2013-03-20 16:54:00,
2013-03-20 09:59:00,54.8,46.1,29.94,WNW,292,0.0,0.0,72,0.00,,,0.00,WUHU21623XXSP,2013-03-20 16:59:00,
2013-03-20 10:04:00,54.8,46.1,29.94,WNW,292,0.0,0.0,72,0.00,,,0.00,WUHU21623XXSP,2013-03-20 17:04:00,
2013-03-20 10:09:00,54.8,46.4,29.93,South,180,0.7,3.6,73,0.00,,,0.00,WUHU21623XXSP,2013-03-20 17:09:00,
2013-03-20 10:14:00,54.8,46.4,29.93,South,180,0.0,3.6,73,0.00,,,0.00,WUHU21623XXSP,2013-03-20 17:14:00,
2013-03-20 10:19:00,55.0,47.0,29.93,South,180,0.0,3.6,74,0.00,,,0.00,WUHU21623XXSP,2013-03-20 17:19:00,
2013-03-20 10:24:00,55.4,47.3,29.93,South,180,0.0,0.0,74,0.00,,,0.00,WUHU21623XXSP,2013-03-20 17:24:00,
2013-03-20 10:29:00,55.9,47.8,29.93,SW,225,0.0,1.3,74,0.00,,,0.00,WUHU21623XXSP,2013-03-20 17:29:00,
2013-03-20 10:34:00,56.1,48.0,29.93,West,270,0.0,4.3,74,0.00,,,0.00,WUHU21623XXSP,2013-03-20 17:34:00,
2013-03-20 10:39:00,56.6,48.2,29.93,West,270,0.0,4.3,73,0.00,,,0.00,WUHU21623XXSP,2013-03-20 17:39:00,
2013-03-20 10:44:00,57.0,48.5,29.93,SW,225,0.0,3.4,73,0.00,,,0.00,WUHU21623XXSP,2013-03-20 17:44:00,
2013-03-20 10:49:00,57.7,48.9,29.93,West,270,0.0,3.2,72,0.00,,,0.00,WUHU21623XXSP,2013-03-20 17:49:00,
2013-03-20 10:54:00,58.1,49.2,29.93,West,270,0.0,1.3,72,0.00,,,0.00,WUHU21623XXSP,2013-03-20 17:54:00,
2013-03-20 10:59:00,58.4,49.2,29.93,West,270,0.0,1.3,71,0.00,,,0.00,WUHU21623XXSP,2013-03-20 17:59:00,
2013-03-20 11:04:00,59.0,49.4,29.93,West,270,1.6,5.8,70,0.00,,,0.00,WUHU21623XXSP,2013-03-20 18:04:00,
2013-03-20 11:09:00,59.3,49.6,29.93,SW,225,0.0,6.0,70,0.00,,,0.00,WUHU21623XXSP,2013-03-20 18:09:00,
2013-03-20 11:14:00,59.7,49.7,29.93,West,270,0.0,8.5,69,0.00,,,0.00,WUHU21623XXSP,2013-03-20 18:14:00,
2013-03-20 11:19:00,60.2,49.7,29.93,West,270,0.0,11.0,68,0.00,,,0.00,WUHU21623XXSP,2013-03-20 18:19:00,
2013-03-20 11:24:00,60.4,49.9,29.94,West,270,4.3,11.0,68,0.00,,,0.00,WUHU21623XXSP,2013-03-20 18:24:00,
2013-03-20 11:29:00,60.8,49.9,29.94,WSW,247,7.4,8.3,67,0.00,,,0.00,WUHU21623XXSP,2013-03-20 18:29:00,
2013-03-20 11:35:00,60.8,49.5,29.94,West,270,7.8,11.0,66,0.00,,,0.00,WUHU21623XXSP,2013-03-20 18:35:00,
2013-03-20 11:40:00,61.0,49.3,29.94,WSW,247,9.4,11.9,65,0.00,,,0.00,WUHU21623XXSP,2013-03-20 18:40:00,
2013-03-20 11:45:00,61.1,49.0,29.94,WSW,247,9.2,12.3,64,0.00,,,0.00,WUHU21623XXSP,2013-03-20 18:45:00,
2013-03-20 11:50:00,61.3,49.2,29.94,WSW,247,0.0,12.3,64,0.00,,,0.00,WUHU21623XXSP,2013-03-20 18:50:00,
2013-03-20 11:55:00,61.5,48.9,29.94,WNW,292,11.2,11.9,63,0.00,,,0.00,WUHU21623XXSP,2013-03-20 18:55:00,
2013-03-20 12:00:00,61.7,49.1,29.94,WSW,247,11.4,12.1,63,0.00,,,0.00,WUHU21623XXSP,2013-03-20 19:00:00,
2013-03-20 12:05:00,61.7,48.3,29.94,West,270,8.7,12.1,61,0.00,,,0.00,WUHU21623XXSP,2013-03-20 19:05:00,
2013-03-20 12:10:00,61.7,48.3,29.94,West,270,11.4,13.6,61,0.00,,,0.00,WUHU21623XXSP,2013-03-20 19:10:00,
2013-03-20 12:15:00,62.0,48.1,29.94,WSW,247,8.5,13.6,60,0.00,,,0.00,WUHU21623XXSP,2013-03-20 19:15:00,
2013-03-20 12:20:00,62.0,47.6,29.93,West,270,11.2,13.4,59,0.00,,,0.00,WUHU21623XXSP,2013-03-20 19:20:00,
2013-03-20 12:25:00,62.4,48.0,29.94,WSW,247,11.6,13.4,59,0.00,,,0.00,WUHU21623XXSP,2013-03-20 19:25:00,
2013-03-20 12:30:00,62.6,47.7,29.94,WSW,247,8.3,13.4,58,0.00,,,0.00,WUHU21623XXSP,2013-03-20 19:30:00,
2013-03-20 12:35:00,62.8,48.4,29.94,SW,225,11.2,14.8,59,0.00,,,0.00,WUHU21623XXSP,2013-03-20 19:35:00,
2013-03-20 12:40:00,62.8,48.4,29.95,SW,225,11.6,14.8,59,0.00,,,0.00,WUHU21623XXSP,2013-03-20 19:40:00,
2013-03-20 12:45:00,62.9,48.5,29.95,WSW,247,7.8,13.2,59,0.00,,,0.00,WUHU21623XXSP,2013-03-20 19:45:00,
2013-03-20 12:50:00,62.9,48.5,29.94,SW,225,11.2,13.2,59,0.00,,,0.00,WUHU21623XXSP,2013-03-20 19:50:00,
2013-03-20 12:55:00,62.8,48.4,29.95,SW,225,10.3,15.7,59,0.00,,,0.00,WUHU21623XXSP,2013-03-20 19:55:00,
2013-03-20 13:00:00,62.6,47.7,29.94,SSW,202,11.0,15.7,58,0.00,,,0.00,WUHU21623XXSP,2013-03-20 20:00:00,
2013-03-20 13:05:00,62.6,47.7,29.94,WSW,247,8.5,12.8,58,0.00,,,0.00,WUHU21623XXSP,2013-03-20 20:05:00,
2013-03-20 13:10:00,62.8,48.4,29.94,WSW,247,11.0,13.0,59,0.00,,,0.00,WUHU21623XXSP,2013-03-20 20:10:00,
2013-03-20 13:15:00,63.1,48.7,29.94,WSW,247,9.2,13.6,59,0.00,,,0.00,WUHU21623XXSP,2013-03-20 20:15:00,
2013-03-20 13:20:00,63.1,48.7,29.94,West,270,3.8,13.6,59,0.00,,,0.00,WUHU21623XXSP,2013-03-20 20:20:00,
2013-03-20 13:25:00,63.1,48.7,29.94,WSW,247,11.9,12.8,59,0.00,,,0.00,WUHU21623XXSP,2013-03-20 20:25:00,
2013-03-20 13:30:00,63.1,48.7,29.94,SW,225,8.9,13.4,59,0.00,,,0.00,WUHU21623XXSP,2013-03-20 20:30:00,
2013-03-20 13:35:00,63.1,48.7,29.94,WSW,247,7.6,13.4,59,0.00,,,0.00,WUHU21623XXSP,2013-03-20 20:35:00,
2013-03-20 13:40:00,63.1,48.7,29.95,WSW,247,9.6,12.5,59,0.00,,,0.00,WUHU21623XXSP,2013-03-20 20:40:00,
2013-03-20 13:45:00,62.9,48.5,29.94,WSW,247,11.2,11.2,59,0.00,,,0.00,WUHU21623XXSP,2013-03-20 20:45:00,
2013-03-20 13:50:00,62.8,48.4,29.94,WSW,247,11.9,12.8,59,0.00,,,0.00,WUHU21623XXSP,2013-03-20 20:50:00,
2013-03-20 13:55:00,62.6,47.7,29.94,SW,225,8.3,12.8,58,0.00,,,0.00,WUHU21623XXSP,2013-03-20 20:55:00,
2013-03-20 14:00:00,62.6,47.7,29.94,SW,225,7.4,12.8,58,0.00,,,0.00,WUHU21623XXSP,2013-03-20 21:00:00,
2013-03-20 14:05:00,62.2,47.8,29.94,WSW,247,9.8,10.7,59,0.00,,,0.00,WUHU21623XXSP,2013-03-20 21:05:00,
2013-03-20 14:10:00,62.2,47.8,29.94,West,270,8.7,11.0,59,0.00,,,0.00,WUHU21623XXSP,2013-03-20 21:10:00,
2013-03-20 14:15:00,62.2,48.3,29.94,West,270,9.4,11.9,60,0.00,,,0.00,WUHU21623XXSP,2013-03-20 21:15:00,
2013-03-20 14:20:00,62.2,48.3,29.94,West,270,7.4,11.9,60,0.00,,,0.00,WUHU21623XXSP,2013-03-20 21:20:00,
2013-03-20 14:25:00,62.2,48.3,29.94,West,270,4.7,11.4,60,0.00,,,0.00,WUHU21623XXSP,2013-03-20 21:25:00,
2013-03-20 14:30:00,62.2,48.7,29.94,WNW,292,8.7,15.2,61,0.00,,,0.00,WUHU21623XXSP,2013-03-20 21:30:00,
2013-03-20 14:35:00,62.2,48.7,29.94,NW,315,10.3,15.2,61,0.00,,,0.00,WUHU21623XXSP,2013-03-20 21:35:00,
2013-03-20 14:40:00,62.2,49.2,29.94,NW,315,12.3,15.7,62,0.00,,,0.00,WUHU21623XXSP,2013-03-20 21:40:00,
2013-03-20 14:45:00,62.0,49.0,29.94,NW,315,10.3,15.7,62,0.00,,,0.00,WUHU21623XXSP,2013-03-20 21:45:00,
2013-03-20 14:50:00,62.0,49.4,29.94,WNW,292,10.1,13.4,63,0.00,,,0.00,WUHU21623XXSP,2013-03-20 21:50:00,
2013-03-20 14:55:00,62.0,49.4,29.94,NW,315,8.9,13.4,63,0.00,,,0.00,WUHU21623XXSP,2013-03-20 21:55:00,
2013-03-20 15:00:00,62.0,49.8,29.94,NW,315,13.2,15.9,64,0.00,,,0.00,WUHU21623XXSP,2013-03-20 22:00:00,
2013-03-20 15:05:00,62.0,50.3,29.94,NW,315,8.1,15.9,65,0.00,,,0.00,WUHU21623XXSP,2013-03-20 22:05:00,
2013-03-20 15:10:00,61.9,50.2,29.94,WNW,292,9.4,13.6,65,0.00,,,0.00,WUHU21623XXSP,2013-03-20 22:10:00,
2013-03-20 15:15:00,61.7,50.0,29.94,NW,306,9.9,12.8,65,0.00,,,0.00,WUHU21623XXSP,2013-03-20 22:15:00,
2013-03-20 15:20:00,61.7,50.0,29.94,NW,315,9.4,12.8,65,0.00,,,0.00,WUHU21623XXSP,2013-03-20 22:20:00,
2013-03-20 15:25:00,61.7,50.0,29.94,WNW,292,11.2,15.4,65,0.00,,,0.00,WUHU21623XXSP,2013-03-20 22:25:00,
2013-03-20 15:30:00,61.7,50.0,29.94,WNW,298,10.7,15.4,65,0.00,,,0.00,WUHU21623XXSP,2013-03-20 22:30:00,
2013-03-20 15:35:00,61.5,49.8,29.94,WNW,292,13.6,17.0,65,0.00,,,0.00,WUHU21623XXSP,2013-03-20 22:35:00,
2013-03-20 15:40:00,61.3,50.0,29.94,WNW,292,13.0,17.0,66,0.00,,,0.00,WUHU21623XXSP,2013-03-20 22:40:00,
2013-03-20 15:45:00,61.1,49.8,29.94,WNW,302,12.1,18.1,66,0.00,,,0.00,WUHU21623XXSP,2013-03-20 22:45:00,
2013-03-20 15:50:00,61.1,49.8,29.94,WNW,292,11.6,20.8,66,0.00,,,0.00,WUHU21623XXSP,2013-03-20 22:50:00,
2013-03-20 15:55:00,60.8,49.5,29.94,WNW,292,9.6,20.8,66,0.00,,,0.00,WUHU21623XXSP,2013-03-20 22:55:00,
2013-03-20 16:00:00,60.8,49.9,29.94,WNW,292,11.6,17.2,67,0.00,,,0.00,WUHU21623XXSP,2013-03-20 23:00:00,
2013-03-20 16:05:00,60.6,50.1,29.93,WNW,293,10.8,13.6,68,0.00,,,0.00,WUHU21623XXSP,2013-03-20 23:05:00,
2013-03-20 16:10:00,60.6,50.1,29.93,WNW,292,12.3,15.7,68,0.00,,,0.00,WUHU21623XXSP,2013-03-20 23:10:00,
2013-03-20 16:15:00,60.6,50.1,29.93,WNW,292,10.3,15.7,68,0.00,,,0.00,WUHU21623XXSP,2013-03-20 23:15:00,
2013-03-20 16:20:00,60.8,50.3,29.93,West,270,16.6,16.6,68,0.00,,,0.00,WUHU21623XXSP,2013-03-20 23:20:00,
2013-03-20 16:25:00,60.8,50.3,29.93,West,270,11.6,16.6,68,0.00,,,0.00,WUHU21623XXSP,2013-03-20 23:25:00,
2013-03-20 16:30:00,60.8,50.3,29.93,WNW,292,9.8,16.6,68,0.00,,,0.00,WUHU21623XXSP,2013-03-20 23:30:00,
2013-03-20 16:35:00,60.8,50.7,29.93,WNW,292,11.2,16.1,69,0.00,,,0.00,WUHU21623XXSP,2013-03-20 23:35:00,
2013-03-20 16:40:00,60.6,50.5,29.94,WNW,292,7.4,16.6,69,0.00,,,0.00,WUHU21623XXSP,2013-03-20 23:40:00,
2013-03-20 16:45:00,60.6,50.5,29.94,WNW,292,13.2,20.4,69,0.00,,,0.00,WUHU21623XXSP,2013-03-20 23:45:00,
2013-03-20 16:50:00,60.6,50.5,29.94,West,270,11.6,20.4,69,0.00,,,0.00,WUHU21623XXSP,2013-03-20 23:50:00,
2013-03-20 16:55:00,60.6,50.5,29.94,WNW,292,16.1,17.2,69,0.00,,,0.00,WUHU21623XXSP,2013-03-20 23:55:00,
2013-03-20 17:00:00,60.6,50.9,29.93,West,270,9.6,17.2,70,0.00,,,0.00,WUHU21623XXSP,2013-03-21 00:00:00,
2013-03-20 17:05:00,60.4,50.7,29.92,West,270,11.0,15.7,70,0.00,,,0.00,WUHU21623XXSP,2013-03-21 00:05:00,
2013-03-20 17:10:00,60.4,50.7,29.92,WSW,247,6.9,13.4,70,0.00,,,0.00,WUHU21623XXSP,2013-03-21 00:10:00,
2013-03-20 17:15:00,60.4,50.7,29.93,West,270,7.6,13.6,70,0.00,,,0.00,WUHU21623XXSP,2013-03-21 00:15:00,
2013-03-20 17:20:00,60.2,50.5,29.92,WSW,247,6.7,13.6,70,0.00,,,0.00,WUHU21623XXSP,2013-03-21 00:20:00,
2013-03-20 17:25:00,60.2,50.5,29.92,West,270,9.2,12.3,70,0.00,,,0.00,WUHU21623XXSP,2013-03-21 00:25:00,
2013-03-20 17:30:00,60.2,50.5,29.92,West,270,10.3,12.3,70,0.00,,,0.00,WUHU21623XXSP,2013-03-21 00:30:00,
2013-03-20 17:35:00,60.1,50.4,29.92,WNW,292,8.9,12.5,70,0.00,,,0.00,WUHU21623XXSP,2013-03-21 00:35:00,
2013-03-20 17:40:00,59.9,50.6,29.92,West,270,5.6,12.5,71,0.00,,,0.00,WUHU21623XXSP,2013-03-21 00:40:00,
2013-03-20 17:45:00,59.7,50.4,29.92,West,270,6.7,11.9,71,0.00,,,0.00,WUHU21623XXSP,2013-03-21 00:45:00,
2013-03-20 17:50:00,59.7,50.4,29.92,West,270,9.6,11.6,71,0.00,,,0.00,WUHU21623XXSP,2013-03-21 00:50:00,
2013-03-20 17:55:00,59.7,50.4,29.92,West,270,10.7,11.6,71,0.00,,,0.00,WUHU21623XXSP,2013-03-21 00:55:00,
2013-03-20 18:00:00,59.7,50.4,29.92,West,270,11.0,11.2,71,0.00,,,0.00,WUHU21623XXSP,2013-03-21 01:00:00,
2013-03-20 18:05:00,59.7,50.4,29.92,West,270,11.6,13.2,71,0.00,,,0.00,WUHU21623XXSP,2013-03-21 01:05:00,
2013-03-20 18:10:00,59.7,50.4,29.92,West,270,8.5,13.2,71,0.00,,,0.00,WUHU21623XXSP,2013-03-21 01:10:00,
2013-03-20 18:15:00,59.5,50.2,29.92,WNW,292,5.4,11.6,71,0.00,,,0.00,WUHU21623XXSP,2013-03-21 01:15:00,
2013-03-20 18:20:00,59.5,49.8,29.92,WNW,292,4.3,11.6,70,0.00,,,0.00,WUHU21623XXSP,2013-03-21 01:20:00,
2013-03-20 18:25:00,59.3,49.6,29.93,NW,315,3.4,11.4,70,0.00,,,0.00,WUHU21623XXSP,2013-03-21 01:25:00,
2013-03-20 18:30:00,59.2,49.6,29.93,WNW,292,3.6,8.1,70,0.00,,,0.00,WUHU21623XXSP,2013-03-21 01:30:00,
2013-03-20 18:35:00,59.0,49.4,29.93,WNW,292,10.1,10.1,70,0.00,,,0.00,WUHU21623XXSP,2013-03-21 01:35:00,
2013-03-20 18:40:00,58.6,49.0,29.93,NW,315,7.6,10.1,70,0.00,,,0.00,WUHU21623XXSP,2013-03-21 01:40:00,
2013-03-20 18:45:00,59.0,49.7,29.93,WNW,292,8.7,10.3,71,0.00,,,0.00,WUHU21623XXSP,2013-03-21 01:45:00,
2013-03-20 18:50:00,58.6,49.0,29.93,NW,315,6.7,10.3,70,0.00,,,0.00,WUHU21623XXSP,2013-03-21 01:50:00,
2013-03-20 18:55:00,58.6,49.4,29.92,WNW,292,6.3,12.3,71,0.00,,,0.00,WUHU21623XXSP,2013-03-21 01:55:00,
2013-03-20 19:00:00,58.4,49.2,29.93,West,270,5.1,12.3,71,0.00,,,0.00,WUHU21623XXSP,2013-03-21 02:00:00,
2013-03-20 19:05:00,58.1,48.9,29.93,West,270,11.2,11.6,71,0.00,,,0.00,WUHU21623XXSP,2013-03-21 02:05:00,
2013-03-20 19:10:00,58.1,48.9,29.92,WNW,292,9.6,12.3,71,0.00,,,0.00,WUHU21623XXSP,2013-03-21 02:10:00,
2013-03-20 19:15:00,57.7,48.5,29.92,West,273,9.0,12.5,71,0.00,,,0.00,WUHU21623XXSP,2013-03-21 02:15:00,
2013-03-20 19:20:00,57.4,48.2,29.93,West,270,13.4,17.4,71,0.00,,,0.00,WUHU21623XXSP,2013-03-21 02:20:00,
2013-03-20 19:25:00,57.0,47.8,29.93,WNW,292,13.2,18.8,71,0.00,,,0.00,WUHU21623XXSP,2013-03-21 02:25:00,
2013-03-20 19:30:00,56.8,48.0,29.93,West,270,7.4,18.8,72,0.00,,,0.00,WUHU21623XXSP,2013-03-21 02:30:00,
2013-03-20 19:35:00,56.8,48.0,29.93,West,270,8.9,17.2,72,0.00,,,0.00,WUHU21623XXSP,2013-03-21 02:35:00,
2013-03-20 19:40:00,56.8,48.0,29.93,West,270,8.1,13.6,72,0.00,,,0.00,WUHU21623XXSP,2013-03-21 02:40:00,
2013-03-20 19:45:00,56.8,48.0,29.94,West,270,7.4,13.6,72,0.00,,,0.00,WUHU21623XXSP,2013-03-21 02:45:00,
2013-03-20 19:50:00,56.8,48.0,29.94,West,270,5.1,9.4,72,0.00,,,0.00,WUHU21623XXSP,2013-03-21 02:50:00,
2013-03-20 19:55:00,56.8,48.0,29.94,West,270,6.9,8.7,72,0.00,,,0.00,WUHU21623XXSP,2013-03-21 02:55:00,
2013-03-20 20:00:00,56.8,48.0,29.94,West,270,7.6,9.8,72,0.00,,,0.00,WUHU21623XXSP,2013-03-21 03:00:00,
2013-03-20 20:05:00,56.6,47.8,29.94,West,270,6.9,11.9,72,0.00,,,0.00,WUHU21623XXSP,2013-03-21 03:05:00,
2013-03-20 20:10:00,56.5,47.7,29.94,West,270,10.3,12.8,72,0.00,,,0.00,WUHU21623XXSP,2013-03-21 03:10:00,
2013-03-20 20:15:00,56.3,47.5,29.94,West,270,7.4,13.2,72,0.00,,,0.00,WUHU21623XXSP,2013-03-21 03:15:00,
2013-03-20 20:20:00,55.9,47.1,29.94,West,270,9.6,13.2,72,0.00,,,0.00,WUHU21623XXSP,2013-03-21 03:20:00,
2013-03-20 20:25:00,55.9,47.1,29.94,West,270,7.2,12.8,72,0.00,,,0.00,WUHU21623XXSP,2013-03-21 03:25:00,
2013-03-20 20:30:00,55.9,47.5,29.95,WNW,292,6.9,13.2,73,0.00,,,0.00,WUHU21623XXSP,2013-03-21 03:30:00,
2013-03-20 20:35:00,55.9,47.5,29.95,WSW,247,3.6,13.2,73,0.00,,,0.00,WUHU21623XXSP,2013-03-21 03:35:00,
2013-03-20 20:40:00,55.7,47.3,29.95,West,270,7.8,13.2,73,0.00,,,0.00,WUHU21623XXSP,2013-03-21 03:40:00,
2013-03-20 20:45:00,55.6,47.2,29.95,WSW,247,10.3,11.4,73,0.00,,,0.00,WUHU21623XXSP,2013-03-21 03:45:00,
2013-03-20 20:50:00,55.4,47.0,29.95,WSW,247,9.2,13.2,73,0.00,,,0.00,WUHU21623XXSP,2013-03-21 03:50:00,
2013-03-20 20:55:00,55.0,46.6,29.95,WSW,247,9.8,15.7,73,0.00,,,0.00,WUHU21623XXSP,2013-03-21 03:55:00,
2013-03-20 21:00:00,55.0,47.0,29.95,WSW,247,12.1,15.7,74,0.00,,,0.00,WUHU21623XXSP,2013-03-21 04:00:00,
2013-03-20 21:05:00,54.8,46.4,29.95,WSW,247,9.2,13.2,73,0.00,,,0.00,WUHU21623XXSP,2013-03-21 04:05:00,
2013-03-20 21:10:00,54.7,46.7,29.95,WSW,247,10.5,13.2,74,0.00,,,0.00,WUHU21623XXSP,2013-03-21 04:10:00,
2013-03-20 21:15:00,54.5,46.5,29.95,WSW,247,13.4,13.4,74,0.00,,,0.00,WUHU21623XXSP,2013-03-21 04:15:00,
2013-03-20 21:20:00,54.5,46.5,29.96,WSW,247,9.4,13.4,74,0.00,,,0.00,WUHU21623XXSP,2013-03-21 04:20:00,
2013-03-20 21:25:00,54.3,46.3,29.95,West,270,10.5,13.0,74,0.00,,,0.00,WUHU21623XXSP,2013-03-21 04:25:00,
2013-03-20 21:30:00,54.5,46.5,29.96,West,270,10.1,15.4,74,0.00,,,0.00,WUHU21623XXSP,2013-03-21 04:30:00,
2013-03-20 21:35:00,54.8,47.1,29.96,West,270,11.9,15.4,75,0.00,,,0.00,WUHU21623XXSP,2013-03-21 04:35:00,
2013-03-20 21:40:00,55.0,47.0,29.96,West,270,8.7,15.2,74,0.00,,,0.00,WUHU21623XXSP,2013-03-21 04:40:00,
2013-03-20 21:45:00,55.0,47.0,29.96,WSW,247,15.7,15.7,74,0.00,,,0.00,WUHU21623XXSP,2013-03-21 04:45:00,
2013-03-20 21:50:00,55.0,47.0,29.96,WSW,247,11.9,15.7,74,0.00,,,0.00,WUHU21623XXSP,2013-03-21 04:50:00,
2013-03-20 21:55:00,54.8,46.8,29.96,WSW,247,8.3,13.4,74,0.00,,,0.00,WUHU21623XXSP,2013-03-21 04:55:00,
2013-03-20 22:00:00,54.5,46.5,29.96,WSW,247,5.6,12.8,74,0.00,,,0.00,WUHU21623XXSP,2013-03-21 05:00:00,
2013-03-20 22:05:00,54.1,46.1,29.96,WSW,247,7.8,13.0,74,0.00,,,0.00,WUHU21623XXSP,2013-03-21 05:05:00,
2013-03-20 22:10:00,53.9,45.9,29.96,WSW,247,11.9,13.0,74,0.00,,,0.00,WUHU21623XXSP,2013-03-21 05:10:00,
2013-03-20 22:15:00,53.8,45.8,29.96,WSW,247,11.2,12.5,74,0.00,,,0.00,WUHU21623XXSP,2013-03-21 05:15:00,
2013-03-20 22:20:00,53.6,45.6,29.96,WSW,247,8.5,12.5,74,0.00,,,0.00,WUHU21623XXSP,2013-03-21 05:20:00,
2013-03-20 22:25:00,53.2,45.2,29.96,WSW,247,9.6,11.6,74,0.00,,,0.00,WUHU21623XXSP,2013-03-21 05:25:00,
2013-03-20 22:30:00,53.0,45.0,29.96,West,270,8.7,12.5,74,0.00,,,0.00,WUHU21623XXSP,2013-03-21 05:30:00,
2013-03-20 22:35:00,53.0,45.0,29.96,West,270,13.4,13.4,74,0.00,,,0.00,WUHU21623XXSP,2013-03-21 05:35:00,
2013-03-20 22:40:00,53.0,45.4,29.96,West,270,17.2,17.2,75,0.00,,,0.00,WUHU21623XXSP,2013-03-21 05:40:00,
2013-03-20 22:45:00,53.2,45.6,29.96,West,270,11.9,17.7,75,0.00,,,0.00,WUHU21623XXSP,2013-03-21 05:45:00,
2013-03-20 22:50:00,53.0,45.0,29.96,West,270,13.6,19.7,74,0.00,,,0.00,WUHU21623XXSP,2013-03-21 05:50:00,
2013-03-20 22:55:00,52.7,44.7,29.96,West,270,12.5,19.7,74,0.00,,,0.00,WUHU21623XXSP,2013-03-21 05:55:00,
2013-03-20 23:00:00,52.5,44.5,29.96,West,270,11.6,18.6,74,0.00,,,0.00,WUHU21623XXSP,2013-03-21 06:00:00,
2013-03-20 23:05:00,52.3,44.3,29.96,West,270,8.1,14.8,74,0.00,,,0.00,WUHU21623XXSP,2013-03-21 06:05:00,
2013-03-20 23:10:00,52.3,44.3,29.96,West,270,9.2,13.6,74,0.00,,,0.00,WUHU21623XXSP,2013-03-21 06:10:00,
2013-03-20 23:15:00,52.1,44.5,29.96,West,270,6.5,13.6,75,0.00,,,0.00,WUHU21623XXSP,2013-03-21 06:15:00,
2013-03-20 23:20:00,52.1,44.5,29.97,West,270,4.9,11.2,75,0.00,,,0.00,WUHU21623XXSP,2013-03-21 06:20:00,
2013-03-20 23:25:00,52.3,44.7,29.96,WSW,247,7.4,11.2,75,0.00,,,0.00,WUHU21623XXSP,2013-03-21 06:25:00,
2013-03-20 23:30:00,52.3,44.7,29.96,WNW,292,6.0,11.2,75,0.00,,,0.00,WUHU21623XXSP,2013-03-21 06:30:00,
2013-03-20 23:35:00,52.5,44.9,29.96,WSW,247,10.5,10.7,75,0.00,,,0.00,WUHU21623XXSP,2013-03-21 06:35:00,
2013-03-20 23:40:00,52.5,44.9,29.96,West,270,6.7,10.5,75,0.00,,,0.00,WUHU21623XXSP,2013-03-21 06:40:00,
2013-03-20 23:45:00,52.3,44.7,29.96,WSW,247,7.8,11.4,75,0.00,,,0.00,WUHU21623XXSP,2013-03-21 06:45:00,
2013-03-20 23:50:00,52.3,44.7,29.96,WSW,247,8.1,11.4,75,0.00,,,0.00,WUHU21623XXSP,2013-03-21 06:50:00,
2013-03-20 23:55:00,52.5,44.9,29.95,West,270,10.3,11.9,75,0.00,,,0.00,WUHU21623XXSP,2013-03-21 06:55:00,